This is the latest recevied weather packets stored in our database for station/object AK4NG. If no packets are shown the sender has not sent any weather packets the latest 10 day(s).
| Time | Temp. | Humidity | Pressure | Rain* | Wind** | Luminosity | Snow |
|---|---|---|---|---|---|---|---|
| 1778148954 | 21.67° C | 97% | 1011 hPa | 0 mm | - | 0 W/m² | - |
| 1778148651 | 21.67° C | 97% | 1011 hPa | 0 mm | - | 0 W/m² | - |
| 1778148348 | 21.67° C | 97% | 1010.6 hPa | 0 mm | - | 0 W/m² | - |
| 1778148046 | 21.67° C | 98% | 1010.8 hPa | 0 mm | - | 0 W/m² | - |
| 1778147744 | 21.67° C | 98% | 1010.9 hPa | 0 mm | - | 0 W/m² | - |
| 1778147441 | 21.67° C | 98% | 1010.9 hPa | 0 mm | - | 0 W/m² | - |
| 1778147137 | 21.67° C | 98% | 1010.9 hPa | 0 mm | - | 0 W/m² | - |
| 1778146834 | 21.67° C | 98% | 1010.9 hPa | 0 mm | - | 0 W/m² | - |
| 1778146531 | 21.67° C | 98% | 1010.6 hPa | 0 mm | - | 0 W/m² | - |
| 1778146230 | 21.67° C | 98% | 1010.5 hPa | 0 mm | - | 0 W/m² | - |
| 1778145926 | 21.67° C | 98% | 1010.8 hPa | 0 mm | - | 0 W/m² | - |
| 1778145623 | 21.67° C | 98% | 1011 hPa | 0 mm | - | 0 W/m² | - |
| 1778145320 | 21.67° C | 98% | 1011.4 hPa | 0 mm | - | 0 W/m² | - |
| 1778145015 | 21.67° C | 98% | 1010.9 hPa | 0 mm | - | 0 W/m² | - |
| 1778144711 | 21.67° C | 97% | 1010.9 hPa | 0 mm | - | 0 W/m² | - |
| 1778144408 | 21.67° C | 97% | 1011 hPa | 0 mm | - | 0 W/m² | - |
| 1778144106 | 21.67° C | 97% | 1010.9 hPa | 0 mm | - | 0 W/m² | - |
| 1778143802 | 21.67° C | 97% | 1011 hPa | 0 mm | - | 0 W/m² | - |
| 1778143499 | 21.67° C | 97% | 1011.2 hPa | 0 mm | - | 0 W/m² | - |
| 1778143196 | 21.67° C | 96% | 1011.2 hPa | 1.27 mm | - | 0 W/m² | - |
| 1778142892 | 21.67° C | 96% | 1011.4 hPa | 6.1 mm | - | 0 W/m² | - |
| 1778142589 | 21.67° C | 96% | 1012 hPa | 8.89 mm | - | 0 W/m² | - |
| 1778142285 | 21.67° C | 95% | 1012.3 hPa | 4.32 mm | - | 0 W/m² | - |
| 1778141981 | 21.67° C | 95% | 1011.5 hPa | 0 mm | - | 0 W/m² | - |
| 1778141678 | 21.67° C | 95% | 1011.4 hPa | 0 mm | - | 0 W/m² | - |
* Rain latest hour (hover to see other rain measurements)
** Current wind speed in m/s (hover to see current wind gust speed)